Location: Saluda
(35.2377°N, 82.3468°W)
Time: 03:36:58
(UTC+00:00)

Vanguard 2 Rocket - Pass Details

Date: 08 October 2022
Orbit: 555 x 3321 km, 32.9° (Epoch: 05 December)

Event Time Altitude Azimuth Distance (km) Brightness Sun altitude
Rises 07:44:08 0° 281° (WNW) 5,642 - -45.2°
Reaches altitude 10° 07:48:44 10° 276° (W) 4,157 - -44.4°
Maximum altitude 07:58:02 42° 210° (SSW) 1,621 - -42.8°
Drops below altitude 10° 08:03:36 10° 140° (SE) 2,489 - -41.8°
Sets 08:05:43 0° 133° (SE) 3,211 - -41.4°
